www.pogodaiklimat.ru
ПОГОДА в Гейтерсберге
Время
и дата
07:56 07.02
08:56 07.02
09:56 07.02
10:56 07.02
11:56 07.02
12:56 07.02
13:56 07.02
14:56 07.02
15:56 07.02
16:56 07.02
17:56 07.02
18:56 07.02
19:56 07.02
20:56 07.02
21:56 07.02
22:56 07.02
23:56 07.02
00:56 08.02
01:56 08.02
02:56 08.02
03:56 08.02
04:56 08.02
05:56 08.02
06:56 08.02
07:56 08.02
08:56 08.02
09:56 08.02
10:56 08.02
11:56 08.02
12:56 08.02
13:56 08.02
14:56 08.02
15:56 08.02
16:56 08.02
17:56 08.02
18:56 08.02
19:56 08.02
20:56 08.02
21:56 08.02
22:56 08.02
23:56 08.02
00:56 09.02
01:56 09.02
02:56 09.02
03:56 09.02
04:56 09.02
05:56 09.02
06:56 09.02
Ветер
(напр.,м/с)
Видим. Явления Облачность Т
(С)
Тd
(С)
f
(%)
Тe
(С)
Тes
(С)
Комфортность P
(гПа)
Po
(гПа)
Тmin
(С)
Tmax
(С)
R
(мм)
R24
(мм)
S
(см)
В 2 11 км ясно -3.3 -3.9 96 -8 -8 1029.8 1009.0
Ю 3 16 км ясно +1.7 +0.6 92 -3 -2 1030.1 1009.3
ЮВ 3 16 км ясно +3.9 -1.7 67 +1 +3 1029.9 1009.3
Ю 5
{8}
16 км ясно +6.1 -1.7 57 +2 +5 1029.3 1008.7
Ю 5 16 км ясно +6.1 -1.7 57 +2 +6 1028.0 1007.4
Ю 4 16 км ясно +7.8 -1.1 53 +5 +10 1027.0 1006.4 -4.4 +7.8
ЮВ 6
{8}
16 км ясно +7.8 -1.1 53 +4 +7 1025.1 1004.7
Ю 5 16 км ясно +8.9 -0.6 51 +6 +9 1024.7 1004.4
Ю 4 16 км ясно +8.9 -0.6 51 +6 +9 1024.7 1004.0
Ю 3 16 км ясно +8.9 -0.6 51 +7 +8 1024.1 1003.7
ЮВ 3 16 км ясно +7.8 -0.6 55 +5 +6 1023.4 1003.0
ЮВ 2 16 км ясно +7.2 0.0 60 +5 +5 1023.5 1003.0 +7.2 +8.9
ЮВ 2 16 км 5/0 3600 m
[Ac]
+7.8 0.0 58 +6 +6 1023.0 1002.7
штиль 0 16 км 8/0 3000 m
[Ac]
+6.7 0.0 62 +6 +6 1023.0 1002.7
штиль 0 16 км 5/0 2550 m
[Ac]
+5.6 0.0 67 +5 +5 1022.5 1002.0
штиль 0 16 км ясно +6.1 +0.6 68 +5 +5 1022.1 1001.7
штиль 0 16 км ясно +5.6 +1.1 73 +5 +5 1021.9 1001.7
штиль 0 16 км 8/0 3600 m
[Ac]
+5.0 +1.1 76 +4 +4 1022.2 1002.0 +5.0 +7.8
штиль 0 16 км 10/0 3300 m
[Ac]
+4.4 +0.6 76 +4 +4 1021.9 1001.7
штиль 0 16 км 10/0 3300 m
[Ac]
+5.0 +1.1 76 +4 +4 1021.4 1001.0
штиль 0 16 км 10/0 3300 m
[Ac]
+4.4 +1.1 79 +4 +4 1021.5 1001.4
штиль 0 16 км 5/5 1290 м +5.0 +1.1 76 +4 +4 1022.4 1002.0
штиль 0 16 км 8/5 1350 m
[Ac]
+5.0 +1.1 76 +4 +4 1022.7 1002.4
штиль 0 16 км 10/10 1410 м +5.0 +1.7 79 +4 +4 1023.7 1003.4 +3.9 +5.6
штиль 0 16 км 2/0 2100 m
[Ac]
+4.4 +1.7 83 +3 +3 1024.7 1004.4
штиль 0 16 км 5/5 1110 м +9.4 +3.9 68 +9 +9 1025.4 1005.4
СЗ 3 16 км ясно +13.3 +5.6 60 +12 +14 1025.8 1005.7
СЗ 2 16 км ясно +14.4 +5.0 53 +14 +19 1026.5 1006.4
З 6
{8}
16 км ясно +15.6 +2.2 40 +14 +17 1026.3 1006.0
СЗ 5 16 км ясно +15.0 +2.2 42 +14 +18 1025.9 1005.7 +4.4 +16.1
СЗ 5 16 км ясно +16.1 +1.7 38 +15 +19 1025.3 1005.0
СЗ 5 16 км ясно +16.1 +1.1 36 +15 +18 1025.4 1005.4
нст 2 16 км ясно +16.1 +0.6 35 +16 +20 1025.8 1005.7
СЗ 2 16 км ясно +15.0 -1.1 33 +15 +16 1026.3 1006.0
штиль 0 16 км ясно +12.2 -1.1 40 +12 +12 1026.6 1006.4
штиль 0 16 км ясно +8.3 -1.1 52 +8 +8 1027.0 1006.7 +8.3 +16.7
штиль 0 16 км ясно +8.3 -2.2 48 +8 +8 1027.4 1007.0
штиль 0 16 км ясно +7.8 -2.2 49 +8 +8 1027.3 1007.0
В 2 16 км ясно +7.8 -2.8 47 +6 +6 1027.8 1007.7
В 2 16 км ясно +6.7 -2.8 51 +5 +5 1027.7 1007.4
В 3 16 км ясно +7.2 -0.6 58 +5 +5 1027.3 1007.0
В 2 16 км 2/0 3000 m
[Ac]
+6.7 0.0 62 +5 +5 1027.1 1006.7 +6.1 +10.0
В 2 16 км 10/0 3000 m
[Ac]
+7.2 +1.1 65 +5 +5 1026.9 1006.7
В 2 16 км слабый дождь 10/0 3300 m
[Ac As]
+7.8 +2.2 68 +6 +6 1026.4 1006.4
В 2 16 км слабый дождь 5/0 3000 m
[Ac As]
+7.2 +3.3 76 +5 +5 1025.5 1005.4
ЮВ 2 16 км 10/10 1800 м +7.8 +3.9 76 +6 +6 1025.9 1005.7
ЮВ 2 16 км 10/10 1650 м +7.8 +3.9 76 +6 +6 1025.1 1004.7
ЮВ 2 16 км 10/10 1500 м +7.8 +4.4 79 +6 +6 1024.6 1004.4 +6.7 +8.3
Местоположение метеостанции Montgomery County Airpark: широта 39.1673 долгота -77.1614 высота над уровнем моря 154 м.
В архиве по умолчанию представлена погода в Гейтерсберге за последние 1-2 суток. Обновление информации о фактической погоде в базе происходит ежечасно! Архивные данные за месяц целиком и за предыдущие месяцы Вы можете получить, выбрав интересующий диапазон дат из раскрывающегося списка и нажав кнопку "Ввод!".
Внимание! Архив погоды МЕТАР в базе сайта по станциям, не включенным в климатический монитор, хранится не более 60 дней. Нет смысла пытаться выбрать более раннюю дату.
*Определитесь, кто Вы:
Внимание! Время в таблицах - местное (без учета летнего времени). Для получения всемирного времени необходимо вычесть поправку, которая равна -5 ч.
Смотрите также архив погоды в соседних городах и на ближайших метеорологических станциях:
Партнеры нашего сайта:      
Пояснения к столбцам:
  • Ветер - указаны скорость ветра в м/с - средняя за 10 мин, порывы в срок и между сроками (в фигурных скобках) и направление, откуда дует ветер: С - северный,
  • СВ - северо-восточный, В - восточный, ЮВ - юго-восточный, Ю - южный, ЮЗ - юго-западный, З - западный, СЗ - северо-западный.
  • Видимость - горизонтальная дальность видимости в метрах или километрах. При видимости от 1 до 10 км при отсутствии осадков обычно наблюдается дымка, при ухудшении видимости до 1 км и менее - туман. В сухую погоду видимость может ухудшаться дымом, пылью или мглою.
  • Явления - указаны атмосферные явления, наблюдавшиеся в срок или в последний час перед сроком; фигурными скобками обозначены явления, наблюдавшиеся между сроками (за 1-3 часа до срока); квадратными скобками обозначены град или гололедные отложения с указанием их диаметра в мм.
  • Облачность - указаны через наклонную черту общая и нижняя облачность в баллах и высота нижней границы облаков в метрах; квадратными скобками обозначены формы облаков: Ci - перистые, Cs - перисто-слоистые, Cc - перисто-кучевые, Ac - высококучевые, As - высокослоистые, Sc - слоисто-кучевые, Ns - слоисто-дождевые, Cu - кучевые, Cb - кучево-дождевые. Подробнее классификацию облаков см. в Атласе облаков (PDF).
  • T - Температура воздуха - температура, измеренная на высоте 2 м над землей.
  • Td - Температура точки росы - температура, при понижении до которой содержащийся в воздухе водяной пар достигнет насыщения.
  • f - Относительная влажность воздуха - влажноcть воздуха, измеренная на высоте 2 м над землей.
  • Te - Эффективная температура - температура, которую ощущает одетый по сезону человек в тени. Характеристика душности погоды. При расчете учитывается влияние влажности воздуха и скорости ветра на теплоощущения человека.
  • Tes - Эффективная температура на солнце - температура, которую ощущает человек, с поправкой на солнечный нагрев. Характеристика знойности погоды. Зависит от высоты солнца над горизонтом, облачности и скорости ветра. Ночью, в пасмурную погоду, а также при ветре 12 м/с и более поправка равна нулю.
  • P - Атмосферное давление - приведенное к уровню моря атмосферное давление.
  • Po - Атмосферное давление - измеренное на уровне метеостанции атмосферное давление.
  • Tmin - Минимальная температура - минимум температуры воздуха на высоте 2 м над землей.
  • Tmax - Максимальная температура - максимум температуры воздуха на высоте 2 м над землей.
  • R - Количество осадков - Количество выпавших осадков за период времени, мм. При наведении курсора мыши на число - период времени, за который выпало указанное количество осадков.
  • R24 - Количество осадков - Количество выпавших осадков за 24 часа, мм.
  • S - Снежный покров - Высота снежного покрова, см. При наведении курсора мыши на число - состояние снежного покрова и степень покрытия местности в баллах.